Back to catalog

STARLINK-5231

AliveCommunicationsVLEO
NORAD 54182·PAYLOAD·🇺🇸 United States

Launched Oct 28, 2022 from Vandenberg Space Force Base

Loading…

Next Passes (next 24 hours)

TLE

FreshSource: CelesTrak SupGP

Epoch: Sep 14, 2026, 14:45 UTC

1 54182C 22141AB  26257.61506944  .00513340  00000+0  29799-1 0  2576
2 54182  53.1602 204.9834 0001266  92.1408 348.3711 15.11379739    12

Track STARLINK-5231 in real time with AllMySat

Download on the App Store